THOR ABLESTAR DEB, 548

Orbit data source: Space-Track

THOR ABLESTAR DEB, 548 is space debris in LEO originally from a launch on Thu, 29 Jun 1961 UTC launched from the Air Force Eastern Test Range (AFETR). Debris objects in space refer to the collection of defunct objects orbiting the Earth. Examples of debris include non-operational satellites, rocket bodies, and fragments generated from explosions, collisions, or faulty payload assembly.

Loading next visibility...
Identifier
548, 1961-015GH
Orbit
LEO
Country
Flag of USUS
Related business
Manufacturer
Unknown
Mission
Spacecraft
Bus & Motor
Unknown
Mass
Unknown
Launch date (UTC)
1961-06-29 (65 years ago)
Launch vehicle
Unknown
Launch site
Air Force Eastern Test Range (AFETR)
Object type
Payload
Rocket body
Debris
Shape & HBR
Unknown shape, 0.1 m
Radar Cross Section
Small (<0.1 m²)

Expand to show TLE details & history
Last TLE update: 1 day ago

TLE from 1 day ago
0 THOR ABLESTAR DEB
1 00548U 61015GH  26043.77159994  .00002062  00000-0  29549-3 0  9998
2 00548  66.6704 297.2129 0101335 215.0705 144.3718 14.75443019385465
Epoch: 2026-02-12T18:31Z
TLE epoch observation values (Epoch: 2026-02-12T18:31:06.234Z)
Latitude
Longitude
-123.38165°
Altitude
703.979 km
Speed
7.473 km/s
True Right ascension
19h 48m 51s
True Declination
0° 00' 00"
Sunlit
Object was in daylight at epoch
Visualization orbit readout
Latitude
Unknown
Longitude
Unknown
Altitude
Unknown
Speed
Unknown
Apparent Right ascension
Unknown
Apparent Declination
Unknown
Sunlit
N/A
Visualization observer readout
Local Sidereal Time
07:45:39
Azimuth
Unknown
Elevation
Unknown
Doppler factor
Unknown
Orbital elements
Apogee altitude
713.229 km
Perigee altitude
570.95 km
Semi-major axis
7,020.226 km
Eccentricity
0.01013
Inclination
66.6704°
RAAN
297.2129°
Arg. of periapsis
215.0705°
True anomaly
145.04132°
Mean anomaly
144.3718°
Eccentric anomaly
144.70725°
Mean motion
3.68992 °/min
Orbital period
97.56 mins
BSTAR
0.00029549

Documentation

Showing up to 5 results
|